Notices

What's New in latest Release from April 7th, 2021:

- Updated Glossary, including Speed of Maximum Gust, and Total Hourly Precipitation

- Updated national and regional climate services offices contacts and prices information

- Addition of station inventory lists for 1981-2010, 1971-2000, and 1961-1990 Normals.

If you haven't already, please take our survey and provide feedback about our website: https://eccc.sondage-survey.ca/f/LanguageSelection.aspx?s=442ca660-fcf1-47c0-95a9-59707d6fd709

Hourly Data Report for March 20, 2020

MIRAMICHI RCS
NEW BRUNSWICK
Current Station Operator: ECCC - MSC

47°00'34.000" N
65°27'54.000" W
33.00 m
8100989
71744
ACQ

Download Data

Hourly Data (March 2020)
Hourly Data Report for March 20, 2020
TIME
LST
Temp Definition
°C
Dew Point Definition
°C
Rel Hum Definition
%
Precip. Amount Definition
mm

Wind Dir Definition
10's deg

Wind Spd Definition
km/h
Visibility Definition
km
Stn Press Definition
kPa
Hmdx Definition


Wind Chill Definition


Weather Definition


00:00 1.9 -3.9 66 LegendMM 15 4   102.48     LegendNANA
01:00 2.2 -5.0 59 LegendMM 16 8   102.39     LegendNANA
02:00 1.5 -3.5 69 LegendMM 17 11   102.27     LegendNANA
03:00 0.3 -1.3 89 LegendMM 9 7   102.07     LegendNANA
04:00 -0.2 -1.3 93 LegendMM 7 13   101.88   -4 LegendNANA
05:00 -0.1 -0.8 95 LegendMM 7 14   101.61   -4 LegendNANA
06:00 0.0 -0.6 95 LegendMM 6 12   101.40   -4 LegendNANA
07:00 0.5 -0.2 95 LegendMM 7 8   101.22     LegendNANA
08:00 0.4 -0.2 96 LegendMM 3 11   100.98     LegendNANA
09:00 0.8 0.3 96 LegendMM 3 10   100.71     LegendNANA
10:00 1.9 1.6 97 LegendMM 4 6   100.46     LegendNANA
11:00 3.3 2.4 94 LegendMM 0 1   100.28     LegendNANA
12:00 3.1 2.6 97 LegendMM 29 3   100.09     LegendNANA
13:00 4.3 3.5 95 LegendMM 24 10   99.90     LegendNANA
14:00 5.1 4.6 97 LegendMM 22 13   99.69     LegendNANA
15:00 6.1 5.6 96 LegendMM 22 28   99.47     LegendNANA
16:00 6.2 5.5 96 LegendMM 22 31   99.36     LegendNANA
17:00 6.1 5.7 97 LegendMM 22 28   99.23     LegendNANA
18:00 4.9 4.2 95 LegendMM 21 29   99.14     LegendNANA
19:00 4.5 3.9 96 LegendMM 20 33   98.95     LegendNANA
20:00 4.3 3.8 96 LegendMM 22 32   98.88     LegendNANA
21:00 4.7 4.5 98 LegendMM 22 33   98.83     LegendNANA
22:00 5.5 5.4 100 LegendMM 23 35   98.77     LegendNANA
23:00 6.1 5.5 96 LegendMM 23 31   98.86     LegendNANA

Notes on Data Quality.

Legend

  • E = Estimated
  • M = Missing
  • NA = Not Available*
  • [empty] = Indicates an unobserved value
Date modified: